COSMOS 2058 (20465 NORAD) Tracking and Keplerian Element Data

This shows tracking and keplerian element data for the satellite.

Feedback or suggestion? Click here.




ElementValue
Catalog20465
NameCOSMOS 2058
Epoch Orbit52341
Epoch Day198.62127889
Epoch Year2018
RAAN227.5815
Inclination82.488
Eccentricity0.0016661
Argument of Perigee47.2687
Mean Anonmoly312.9935
Mean Motion14.97742009
Decay Rate2.27E-06
L11 20465U 90010A 18198.62127889 .00000227 00000-0 17025-4 0 9997
L22 20465 82.4880 227.5815 0016661 47.2687 312.9935 14.97742009523413

Live tracking and technical data element details for COSMOS 2058 (NORAD 20465). COSMOS 2058 can be tracked NOW for your location showing map with azimuth and elevation plus other details from your city location.

Track the satellite on the map from your city or location and see movement details for azimuth, elevation, latitude, longitude, range, height, and movement on the map or in text.







IsCatalogInMostPopularTable: catalog: 20465, numindb: 25
Update: records affected: 1



GetName: 20465 COSMOS 2058

Hit Count: updated at: Thu, 19 Jul 2018 21:10:40 GMT